| time (UTC) | temp C | wind direction | speed KPH | gust KPH | rain 1hr cm | rain 24hr cm | rain mn cm | humidity % | barometer mb |
| 20260508225812 | 25 | 38 | 0.0 | 0.0 | 0.00 | 0.00 | 0.00 | 67 | 1011.0 |
| 20260508225321 | 25 | 38 | 0.0 | 0.0 | 0.00 | 0.00 | 0.00 | 67 | 1011.0 |
| 20260508224555 | 25 | 38 | 0.0 | 0.0 | 0.00 | 0.00 | 0.00 | 67 | 1010.9 |
| 20260508224051 | 25 | 38 | 0.0 | 0.0 | 0.00 | 0.00 | 0.00 | 67 | 1011.0 |
| 20260508223549 | 25 | 38 | 0.0 | 0.0 | 0.00 | 0.00 | 0.00 | 67 | 1011.0 |
| 20260508223052 | 25 | 38 | 0.0 | 0.0 | 0.00 | 0.00 | 0.00 | 67 | 1011.0 |
| 20260508222547 | 25 | 38 | 0.0 | 0.0 | 0.00 | 0.00 | 0.00 | 67 | 1011.0 |
| 20260508222045 | 25 | 38 | 0.0 | 0.0 | 0.00 | 0.00 | 0.00 | 67 | 1010.9 |
| 20260508221811 | 25 | 38 | 0.0 | 0.0 | 0.00 | 0.00 | 0.00 | 67 | 1011.0 |
| 20260508221306 | 25 | 38 | 0.0 | 0.0 | 0.00 | 0.00 | 0.00 | 67 | 1010.9 |
| 20260508220536 | 25 | 38 | 0.0 | 0.0 | 0.00 | 0.00 | 0.00 | 67 | 1011.1 |
| 20260508220036 | 25 | 38 | 0.0 | 0.0 | 0.00 | 0.00 | 0.00 | 67 | 1011.1 |
| 20260508215534 | 25 | 38 | 0.0 | 0.0 | 0.00 | 0.00 | 0.00 | 67 | 1011.2 |
| 20260508215030 | 25 | 38 | 0.0 | 0.0 | 0.00 | 0.00 | 0.00 | 67 | 1011.2 |
| 20260508214800 | 25 | 38 | 0.0 | 3.2 | 0.00 | 0.00 | 0.00 | 67 | 1011.2 |
| 20260508214026 | 25 | 40 | 0.0 | 6.4 | 0.00 | 0.00 | 0.00 | 67 | 1011.2 |
| 20260508213013 | 25 | 35 | 0.0 | 0.0 | 0.00 | 0.00 | 0.00 | 67 | 1011.4 |
| 20260508212508 | 25 | 33 | 0.0 | 0.0 | 0.00 | 0.00 | 0.00 | 68 | 1011.5 |
| 20260508212003 | 25 | 33 | 0.0 | 0.0 | 0.00 | 0.00 | 0.00 | 68 | 1011.6 |
| 20260508211456 | 25 | 33 | 0.0 | 0.0 | 0.00 | 0.00 | 0.00 | 68 | 1011.7 |
| 20260508210950 | 25 | 33 | 0.0 | 0.0 | 0.00 | 0.00 | 0.00 | 67 | 1011.7 |
| 20260508210444 | 25 | 33 | 0.0 | 0.0 | 0.00 | 0.00 | 0.00 | 67 | 1011.7 |
| 20260508205432 | 25 | 33 | 0.0 | 0.0 | 0.00 | 0.00 | 0.00 | 67 | 1011.7 |
| 20260508204926 | 26 | 33 | 0.0 | 0.0 | 0.00 | 0.00 | 0.00 | 66 | 1011.7 |
| 20260508204420 | 26 | 33 | 0.0 | 0.0 | 0.00 | 0.00 | 0.00 | 66 | 1011.7 |
| 20260508203914 | 26 | 33 | 0.0 | 0.0 | 0.00 | 0.00 | 0.00 | 66 | 1011.8 |
| 20260508203408 | 26 | 27 | 0.0 | 0.0 | 0.00 | 0.00 | 0.00 | 66 | 1011.8 |
| 20260508202902 | 26 | 27 | 0.0 | 0.0 | 0.00 | 0.00 | 0.00 | 66 | 1011.8 |
| 20260508202357 | 26 | 27 | 0.0 | 0.0 | 0.00 | 0.00 | 0.00 | 66 | 1011.8 |
| 20260508201850 | 26 | 27 | 0.0 | 0.0 | 0.00 | 0.00 | 0.00 | 66 | 1011.9 |
| 20260508200838 | 26 | 22 | 0.0 | 0.0 | 0.00 | 0.00 | 0.00 | 65 | 1012.0 |
| 20260508200332 | 26 | 40 | 0.0 | 0.0 | 0.00 | 0.00 | 0.00 | 65 | 1012.0 |
| 20260508195825 | 26 | 42 | 0.0 | 4.8 | 0.00 | 0.00 | 0.00 | 65 | 1012.0 |
| 20260508195320 | 26 | 42 | 0.0 | 4.8 | 0.00 | 0.00 | 0.00 | 65 | 1012.1 |
| 20260508194814 | 26 | 42 | 0.0 | 0.0 | 0.00 | 0.00 | 0.00 | 65 | 1012.1 |
| 20260508194307 | 26 | 47 | 0.0 | 3.2 | 0.00 | 0.00 | 0.00 | 65 | 1012.1 |
| 20260508193805 | 26 | 47 | 1.6 | 8.0 | 0.00 | 0.00 | 0.00 | 64 | 1012.2 |
| 20260508193304 | 26 | 46 | 1.6 | 8.0 | 0.00 | 0.00 | 0.00 | 64 | 1012.2 |
| 20260508192804 | 26 | 46 | 1.6 | 6.4 | 0.00 | 0.00 | 0.00 | 64 | 1012.4 |
| 20260508192306 | 26 | 46 | 1.6 | 6.4 | 0.00 | 0.00 | 0.00 | 64 | 1012.2 |
| 20260508191816 | 26 | 54 | 0.0 | 0.0 | 0.00 | 0.00 | 0.00 | 63 | 1012.4 |
| 20260508191306 | 26 | 44 | 0.0 | 0.0 | 0.00 | 0.00 | 0.00 | 63 | 1012.4 |
| 20260508190802 | 27 | 51 | 0.0 | 0.0 | 0.00 | 0.00 | 0.00 | 63 | 1012.5 |
| 20260508190302 | 27 | 51 | 0.0 | 0.0 | 0.00 | 0.00 | 0.00 | 63 | 1012.6 |
| 20260508185801 | 27 | 52 | 1.6 | 12.9 | 0.00 | 0.00 | 0.00 | 62 | 1012.6 |
| 20260508185259 | 27 | 53 | 1.6 | 12.9 | 0.00 | 0.00 | 0.00 | 62 | 1012.6 |
| 20260508184756 | 27 | 68 | 0.0 | 4.8 | 0.00 | 0.00 | 0.00 | 62 | 1012.7 |
| 20260508184258 | 27 | 82 | 0.0 | 3.2 | 0.00 | 0.00 | 0.00 | 62 | 1012.7 |
| 20260508183800 | 27 | 82 | 0.0 | 0.0 | 0.00 | 0.00 | 0.00 | 61 | 1012.7 |
| 20260508183255 | 27 | 82 | 0.0 | 0.0 | 0.00 | 0.00 | 0.00 | 61 | 1012.7 |
| 20260508182755 | 27 | 83 | 0.0 | 3.2 | 0.00 | 0.00 | 0.00 | 61 | 1012.7 |
| 20260508182251 | 27 | 90 | 1.6 | 6.4 | 0.00 | 0.00 | 0.00 | 61 | 1012.8 |
| 20260508181748 | 27 | 77 | 1.6 | 6.4 | 0.00 | 0.00 | 0.00 | 61 | 1012.8 |
| 20260508181249 | 27 | 76 | 1.6 | 6.4 | 0.00 | 0.00 | 0.00 | 60 | 1012.8 |
| 20260508180744 | 27 | 73 | 0.0 | 0.0 | 0.00 | 0.00 | 0.00 | 60 | 1012.8 |
| 20260508180238 | 27 | 71 | 0.0 | 0.0 | 0.00 | 0.00 | 0.00 | 60 | 1012.8 |
| 20260508175734 | 27 | 71 | 0.0 | 0.0 | 0.00 | 0.00 | 0.00 | 60 | 1012.8 |
| 20260508175226 | 27 | 71 | 0.0 | 0.0 | 0.00 | 0.00 | 0.00 | 60 | 1012.8 |
| 20260508174720 | 27 | 71 | 1.6 | 4.8 | 0.00 | 0.00 | 0.00 | 60 | 1012.8 |
| 20260508174214 | 27 | 69 | 1.6 | 6.4 | 0.00 | 0.00 | 0.00 | 59 | 1012.8 |
| 20260508173708 | 27 | 69 | 3.2 | 9.7 | 0.00 | 0.00 | 0.00 | 59 | 1012.8 |
| 20260508173201 | 27 | 85 | 3.2 | 9.7 | 0.00 | 0.00 | 0.00 | 59 | 1012.8 |
| 20260508172656 | 27 | 84 | 1.6 | 8.0 | 0.00 | 0.00 | 0.00 | 59 | 1012.8 |
| 20260508172149 | 27 | 76 | 0.0 | 0.0 | 0.00 | 0.00 | 0.00 | 59 | 1012.7 |
| 20260508171641 | 27 | 59 | 0.0 | 0.0 | 0.00 | 0.00 | 0.00 | 59 | 1012.8 |
| 20260508171136 | 27 | 94 | 0.0 | 0.0 | 0.00 | 0.00 | 0.00 | 59 | 1012.7 |
| 20260508170851 | 27 | 94 | 0.0 | 0.0 | 0.00 | 0.00 | 0.00 | 58 | 1012.8 |
| 20260508170124 | 27 | 94 | 0.0 | 6.4 | 0.00 | 0.00 | 0.00 | 58 | 1012.7 |
| 20260508165619 | 27 | 94 | 0.0 | 6.4 | 0.00 | 0.00 | 0.00 | 58 | 1012.6 |
| 20260508165111 | 27 | 98 | 1.6 | 4.8 | 0.00 | 0.00 | 0.00 | 58 | 1012.6 |
| 20260508164607 | 27 | 98 | 1.6 | 4.8 | 0.00 | 0.00 | 0.00 | 58 | 1012.6 |
| 20260508164100 | 28 | 98 | 1.6 | 4.8 | 0.00 | 0.00 | 0.00 | 58 | 1012.4 |
| 20260508163555 | 28 | 98 | 3.2 | 6.4 | 0.00 | 0.00 | 0.00 | 58 | 1012.5 |
| 20260508163048 | 28 | 100 | 4.8 | 9.7 | 0.00 | 0.00 | 0.00 | 58 | 1012.4 |
| 20260508162542 | 28 | 104 | 4.8 | 9.7 | 0.00 | 0.00 | 0.00 | 58 | 1012.4 |
| 20260508162036 | 28 | 90 | 3.2 | 9.7 | 0.00 | 0.00 | 0.00 | 57 | 1012.4 |
| 20260508161752 | 28 | 96 | 1.6 | 9.7 | 0.00 | 0.00 | 0.00 | 57 | 1012.4 |
| 20260508161024 | 28 | 95 | 1.6 | 9.7 | 0.00 | 0.00 | 0.00 | 57 | 1012.2 |
| 20260508160518 | 28 | 113 | 3.2 | 9.7 | 0.00 | 0.00 | 0.00 | 57 | 1012.1 |
| 20260508160013 | 28 | 108 | 4.8 | 11.3 | 0.00 | 0.00 | 0.00 | 57 | 1012.1 |
| 20260508155506 | 28 | 116 | 6.4 | 12.9 | 0.00 | 0.00 | 0.00 | 57 | 1012.1 |
| 20260508155001 | 28 | 102 | 4.8 | 12.9 | 0.00 | 0.00 | 0.00 | 57 | 1012.1 |
| 20260508154454 | 28 | 113 | 3.2 | 9.7 | 0.00 | 0.00 | 0.00 | 57 | 1011.9 |
| 20260508154210 | 28 | 103 | 3.2 | 9.7 | 0.00 | 0.00 | 0.00 | 57 | 1011.9 |
| 20260508153442 | 28 | 103 | 4.8 | 9.7 | 0.00 | 0.00 | 0.00 | 57 | 1011.8 |
| 20260508153154 | 28 | 111 | 4.8 | 9.7 | 0.00 | 0.00 | 0.00 | 57 | 1011.7 |
| 20260508152430 | 28 | 119 | 4.8 | 9.7 | 0.00 | 0.00 | 0.00 | 57 | 1011.7 |
| 20260508151924 | 28 | 117 | 3.2 | 8.0 | 0.00 | 0.00 | 0.00 | 57 | 1011.8 |
| 20260508151638 | 28 | 115 | 3.2 | 9.7 | 0.00 | 0.00 | 0.00 | 56 | 1011.5 |
| 20260508150912 | 29 | 115 | 3.2 | 9.7 | 0.00 | 0.00 | 0.00 | 56 | 1011.5 |
| 20260508150406 | 29 | 109 | 4.8 | 11.3 | 0.00 | 0.00 | 0.00 | 56 | 1011.4 |
| 20260508145900 | 29 | 129 | 4.8 | 12.9 | 0.00 | 0.00 | 0.00 | 56 | 1011.4 |
| 20260508145354 | 29 | 121 | 6.4 | 11.3 | 0.00 | 0.00 | 0.00 | 56 | 1011.3 |
| 20260508144848 | 29 | 117 | 6.4 | 14.5 | 0.00 | 0.00 | 0.00 | 56 | 1011.3 |
| 20260508144342 | 29 | 113 | 6.4 | 14.5 | 0.00 | 0.00 | 0.00 | 56 | 1011.2 |
| 20260508143836 | 29 | 127 | 6.4 | 12.9 | 0.00 | 0.00 | 0.00 | 56 | 1011.2 |
| 20260508143330 | 29 | 123 | 6.4 | 12.9 | 0.00 | 0.00 | 0.00 | 56 | 1011.1 |
| 20260508142824 | 29 | 133 | 6.4 | 19.3 | 0.00 | 0.00 | 0.00 | 56 | 1011.1 |
| 20260508141812 | 29 | 135 | 8.0 | 16.1 | 0.00 | 0.00 | 0.00 | 55 | 1011.1 |
| 20260508141526 | 30 | 117 | 8.0 | 16.1 | 0.00 | 0.00 | 0.00 | 55 | 1011.1 |
| 20260508140800 | 30 | 127 | 6.4 | 16.1 | 0.00 | 0.00 | 0.00 | 55 | 1011.1 |
| 20260508140253 | 30 | 119 | 4.8 | 16.1 | 0.00 | 0.00 | 0.00 | 55 | 1011.1 |
| 20260508135748 | 30 | 132 | 4.8 | 11.3 | 0.00 | 0.00 | 0.00 | 55 | 1011.0 |
| 20260508135244 | 30 | 120 | 6.4 | 12.9 | 0.00 | 0.00 | 0.00 | 55 | 1010.9 |
| 20260508134744 | 30 | 153 | 6.4 | 14.5 | 0.00 | 0.00 | 0.00 | 54 | 1010.7 |
| 20260508134504 | 30 | 149 | 6.4 | 14.5 | 0.00 | 0.00 | 0.00 | 54 | 1010.8 |
| 20260508133744 | 30 | 151 | 6.4 | 11.3 | 0.00 | 0.00 | 0.00 | 54 | 1010.8 |
| 20260508133504 | 30 | 104 | 6.4 | 14.5 | 0.00 | 0.00 | 0.00 | 54 | 1010.9 |
| 20260508132744 | 30 | 127 | 6.4 | 16.1 | 0.00 | 0.00 | 0.00 | 54 | 1010.9 |
| 20260508132244 | 30 | 166 | 6.4 | 16.1 | 0.00 | 0.00 | 0.00 | 54 | 1010.7 |
| 20260508131745 | 30 | 126 | 4.8 | 14.5 | 0.00 | 0.00 | 0.00 | 54 | 1010.9 |
| 20260508131509 | 30 | 144 | 6.4 | 19.3 | 0.00 | 0.00 | 0.00 | 54 | 1010.9 |
| 20260508130746 | 30 | 119 | 6.4 | 19.3 | 0.00 | 0.00 | 0.00 | 54 | 1010.9 |
| 20260508130243 | 30 | 107 | 6.4 | 11.3 | 0.00 | 0.00 | 0.00 | 54 | 1011.0 |
| 20260508125740 | 31 | 140 | 6.4 | 16.1 | 0.00 | 0.00 | 0.00 | 54 | 1011.0 |
| 20260508125238 | 31 | 131 | 8.0 | 16.1 | 0.00 | 0.00 | 0.00 | 54 | 1010.9 |
| 20260508124738 | 31 | 90 | 6.4 | 12.9 | 0.00 | 0.00 | 0.00 | 54 | 1010.9 |
| 20260508124459 | 31 | 113 | 6.4 | 16.1 | 0.00 | 0.00 | 0.00 | 54 | 1010.8 |
| 20260508123741 | 31 | 120 | 8.0 | 17.7 | 0.00 | 0.00 | 0.00 | 53 | 1010.8 |
| 20260508123240 | 31 | 125 | 8.0 | 17.7 | 0.00 | 0.00 | 0.00 | 53 | 1010.8 |
| 20260508123002 | 31 | 146 | 8.0 | 16.1 | 0.00 | 0.00 | 0.00 | 53 | 1010.7 |
| 20260508122232 | 31 | 127 | 8.0 | 16.1 | 0.00 | 0.00 | 0.00 | 53 | 1010.7 |
| 20260508121734 | 31 | 101 | 8.0 | 16.1 | 0.00 | 0.00 | 0.00 | 53 | 1010.7 |
| 20260508121232 | 31 | 123 | 8.0 | 16.1 | 0.00 | 0.00 | 0.00 | 53 | 1010.6 |
| 20260508120730 | 31 | 112 | 8.0 | 17.7 | 0.00 | 0.00 | 0.00 | 53 | 1010.7 |
| 20260508120228 | 31 | 100 | 8.0 | 17.7 | 0.00 | 0.00 | 0.00 | 53 | 1010.5 |
| 20260508115730 | 31 | 99 | 8.0 | 17.7 | 0.00 | 0.00 | 0.00 | 52 | 1010.5 |
| 20260508115230 | 31 | 128 | 9.7 | 19.3 | 0.00 | 0.00 | 0.00 | 52 | 1010.4 |
| 20260508114728 | 31 | 121 | 8.0 | 19.3 | 0.00 | 0.00 | 0.00 | 52 | 1010.4 |
| 20260508114230 | 31 | 94 | 8.0 | 19.3 | 0.00 | 0.00 | 0.00 | 52 | 1010.4 |
| 20260508113728 | 31 | 126 | 8.0 | 16.1 | 0.00 | 0.00 | 0.00 | 52 | 1010.2 |
| 20260508113229 | 32 | 128 | 8.0 | 16.1 | 0.00 | 0.00 | 0.00 | 51 | 1010.2 |
| 20260508112732 | 32 | 135 | 8.0 | 19.3 | 0.00 | 0.00 | 0.00 | 52 | 1010.2 |
| 20260508112232 | 32 | 111 | 8.0 | 20.9 | 0.00 | 0.00 | 0.00 | 51 | 1010.2 |
| 20260508111734 | 32 | 123 | 8.0 | 20.9 | 0.00 | 0.00 | 0.00 | 51 | 1010.4 |
| 20260508111229 | 32 | 156 | 8.0 | 16.1 | 0.00 | 0.00 | 0.00 | 51 | 1010.4 |
| 20260508110728 | 32 | 93 | 9.7 | 16.1 | 0.00 | 0.00 | 0.00 | 51 | 1010.4 |
| 20260508110226 | 32 | 128 | 8.0 | 19.3 | 0.00 | 0.00 | 0.00 | 52 | 1010.5 |
| 20260508105726 | 32 | 142 | 8.0 | 19.3 | 0.00 | 0.00 | 0.00 | 51 | 1010.5 |
| 20260508104728 | 32 | 142 | 8.0 | 17.7 | 0.00 | 0.00 | 0.00 | 52 | 1010.6 |
| 20260508104446 | 32 | 126 | 6.4 | 14.5 | 0.00 | 0.00 | 0.00 | 51 | 1010.5 |
| 20260508103726 | 32 | 150 | 6.4 | 14.5 | 0.00 | 0.00 | 0.00 | 52 | 1010.5 |
| 20260508103228 | 32 | 140 | 6.4 | 14.5 | 0.00 | 0.00 | 0.00 | 52 | 1010.7 |
| 20260508102729 | 32 | 90 | 6.4 | 14.5 | 0.00 | 0.00 | 0.00 | 51 | 1010.6 |
| 20260508102227 | 32 | 113 | 4.8 | 14.5 | 0.00 | 0.00 | 0.00 | 52 | 1010.7 |
| 20260508101727 | 32 | 67 | 6.4 | 17.7 | 0.00 | 0.00 | 0.00 | 51 | 1010.7 |
| 20260508101227 | 32 | 89 | 6.4 | 17.7 | 0.00 | 0.00 | 0.00 | 51 | 1010.7 |
| 20260508100725 | 32 | 136 | 6.4 | 19.3 | 0.00 | 0.00 | 0.00 | 51 | 1010.8 |
| 20260508100458 | 32 | 100 | 6.4 | 19.3 | 0.00 | 0.00 | 0.00 | 52 | 1010.9 |
| 20260508095726 | 32 | 109 | 4.8 | 14.5 | 0.00 | 0.00 | 0.00 | 51 | 1010.9 |
| 20260508095454 | 32 | 84 | 8.0 | 19.3 | 0.00 | 0.00 | 0.00 | 51 | 1011.0 |
| 20260508094726 | 32 | 169 | 6.4 | 19.3 | 0.00 | 0.00 | 0.00 | 51 | 1011.0 |
| 20260508094225 | 32 | 102 | 6.4 | 17.7 | 0.00 | 0.00 | 0.00 | 50 | 1011.1 |
| 20260508093728 | 32 | 115 | 8.0 | 17.7 | 0.00 | 0.00 | 0.00 | 50 | 1011.1 |
| 20260508093226 | 33 | 168 | 8.0 | 16.1 | 0.00 | 0.00 | 0.00 | 50 | 1011.2 |
| 20260508092726 | 33 | 151 | 4.8 | 16.1 | 0.00 | 0.00 | 0.00 | 50 | 1011.2 |
| 20260508092226 | 32 | 237 | 4.8 | 22.5 | 0.00 | 0.00 | 0.00 | 51 | 1011.1 |
| 20260508092003 | 32 | 82 | 8.0 | 22.5 | 0.00 | 0.00 | 0.00 | 51 | 1011.2 |
| 20260508091228 | 32 | 192 | 8.0 | 24.1 | 0.00 | 0.00 | 0.00 | 50 | 1011.2 |
| 20260508090726 | 32 | 156 | 9.7 | 24.1 | 0.00 | 0.00 | 0.00 | 51 | 1011.3 |
| 20260508090224 | 32 | 183 | 11.3 | 22.5 | 0.00 | 0.00 | 0.00 | 50 | 1011.2 |
| 20260508085720 | 32 | 155 | 9.7 | 22.5 | 0.00 | 0.00 | 0.00 | 50 | 1011.3 |
| 20260508085224 | 32 | 118 | 8.0 | 16.1 | 0.00 | 0.00 | 0.00 | 50 | 1011.3 |
| 20260508084718 | 32 | 129 | 8.0 | 16.1 | 0.00 | 0.00 | 0.00 | 50 | 1011.4 |
| 20260508084210 | 32 | 97 | 8.0 | 16.1 | 0.00 | 0.00 | 0.00 | 50 | 1011.4 |
| 20260508083708 | 32 | 149 | 9.7 | 19.3 | 0.00 | 0.00 | 0.00 | 51 | 1011.3 |
| 20260508083429 | 32 | 170 | 9.7 | 19.3 | 0.00 | 0.00 | 0.00 | 50 | 1011.4 |
| 20260508082706 | 32 | 163 | 8.0 | 20.9 | 0.00 | 0.00 | 0.00 | 51 | 1011.5 |
| 20260508082205 | 32 | 143 | 9.7 | 20.9 | 0.00 | 0.00 | 0.00 | 51 | 1011.4 |
| 20260508081706 | 31 | 157 | 9.7 | 16.1 | 0.00 | 0.00 | 0.00 | 51 | 1011.5 |
| 20260508081208 | 31 | 133 | 8.0 | 17.7 | 0.00 | 0.00 | 0.00 | 51 | 1011.5 |
| 20260508080707 | 31 | 128 | 9.7 | 17.7 | 0.00 | 0.00 | 0.00 | 51 | 1011.5 |
| 20260508080205 | 31 | 153 | 8.0 | 17.7 | 0.00 | 0.00 | 0.00 | 51 | 1011.6 |
| 20260508075936 | 31 | 191 | 9.7 | 19.3 | 0.00 | 0.00 | 0.00 | 53 | 1011.6 |
| 20260508075201 | 31 | 128 | 9.7 | 19.3 | 0.00 | 0.00 | 0.00 | 52 | 1011.6 |
| 20260508074702 | 31 | 164 | 9.7 | 17.7 | 0.00 | 0.00 | 0.00 | 52 | 1011.6 |
| 20260508074202 | 31 | 119 | 9.7 | 17.7 | 0.00 | 0.00 | 0.00 | 53 | 1011.6 |
| 20260508073702 | 31 | 95 | 9.7 | 17.7 | 0.00 | 0.00 | 0.00 | 54 | 1011.6 |
| 20260508073201 | 31 | 136 | 8.0 | 17.7 | 0.00 | 0.00 | 0.00 | 52 | 1011.7 |
| 20260508072707 | 31 | 161 | 8.0 | 16.1 | 0.00 | 0.00 | 0.00 | 52 | 1011.6 |
| 20260508072200 | 31 | 101 | 8.0 | 16.1 | 0.00 | 0.00 | 0.00 | 52 | 1011.6 |
| 20260508071922 | 31 | 135 | 9.7 | 16.1 | 0.00 | 0.00 | 0.00 | 53 | 1011.6 |
| 20260508071156 | 30 | 118 | 8.0 | 16.1 | 0.00 | 0.00 | 0.00 | 54 | 1011.7 |
| 20260508070657 | 30 | 108 | 6.4 | 17.7 | 0.00 | 0.00 | 0.00 | 55 | 1011.7 |
| 20260508070417 | 30 | 74 | 6.4 | 17.7 | 0.00 | 0.00 | 0.00 | 54 | 1011.7 |
| 20260508065655 | 30 | 99 | 8.0 | 16.1 | 0.00 | 0.00 | 0.00 | 53 | 1011.7 |
| 20260508065155 | 30 | 130 | 6.4 | 14.5 | 0.00 | 0.00 | 0.00 | 52 | 1011.8 |
| 20260508064654 | 30 | 151 | 8.0 | 14.5 | 0.00 | 0.00 | 0.00 | 53 | 1011.9 |
| 20260508064152 | 30 | 126 | 8.0 | 16.1 | 0.00 | 0.00 | 0.00 | 55 | 1011.9 |
| 20260508063915 | 30 | 98 | 6.4 | 16.1 | 0.00 | 0.00 | 0.00 | 54 | 1011.8 |
| 20260508063155 | 30 | 107 | 6.4 | 16.1 | 0.00 | 0.00 | 0.00 | 55 | 1011.9 |
| 20260508062653 | 30 | 138 | 8.0 | 14.5 | 0.00 | 0.00 | 0.00 | 55 | 1011.9 |
| 20260508062150 | 29 | 121 | 8.0 | 17.7 | 0.00 | 0.00 | 0.00 | 56 | 1012.0 |
| 20260508061651 | 29 | 75 | 9.7 | 19.3 | 0.00 | 0.00 | 0.00 | 55 | 1012.0 |
| 20260508061149 | 29 | 131 | 9.7 | 20.9 | 0.00 | 0.00 | 0.00 | 55 | 1012.1 |
| 20260508060649 | 30 | 166 | 8.0 | 20.9 | 0.00 | 0.00 | 0.00 | 54 | 1012.1 |
| 20260508060150 | 30 | 184 | 9.7 | 17.7 | 0.00 | 0.00 | 0.00 | 55 | 1012.0 |
| 20260508055652 | 30 | 155 | 8.0 | 17.7 | 0.00 | 0.00 | 0.00 | 55 | 1012.1 |
| 20260508055144 | 30 | 137 | 4.8 | 14.5 | 0.00 | 0.00 | 0.00 | 56 | 1012.1 |
| 20260508054901 | 29 | 146 | 4.8 | 14.5 | 0.00 | 0.00 | 0.00 | 57 | 1012.1 |
| 20260508054401 | 29 | 167 | 6.4 | 14.5 | 0.00 | 0.00 | 0.00 | 56 | 1012.1 |
| 20260508053626 | 29 | 142 | 8.0 | 14.5 | 0.00 | 0.00 | 0.00 | 57 | 1012.1 |
| 20260508053119 | 28 | 160 | 6.4 | 14.5 | 0.00 | 0.00 | 0.00 | 57 | 1012.1 |
| 20260508052613 | 28 | 137 | 9.7 | 16.1 | 0.00 | 0.00 | 0.00 | 58 | 1012.1 |
| 20260508052108 | 28 | 146 | 8.0 | 17.7 | 0.00 | 0.00 | 0.00 | 58 | 1012.2 |
| 20260508051601 | 28 | 155 | 6.4 | 17.7 | 0.00 | 0.00 | 0.00 | 58 | 1012.2 |
| 20260508051055 | 28 | 142 | 6.4 | 17.7 | 0.00 | 0.00 | 0.00 | 59 | 1012.4 |
| 20260508050550 | 28 | 109 | 6.4 | 17.7 | 0.00 | 0.00 | 0.00 | 59 | 1012.2 |
| 20260508050043 | 28 | 169 | 6.4 | 12.9 | 0.00 | 0.00 | 0.00 | 59 | 1012.2 |
| 20260508045537 | 28 | 119 | 4.8 | 12.9 | 0.00 | 0.00 | 0.00 | 60 | 1012.5 |
| 20260508045031 | 28 | 121 | 6.4 | 14.5 | 0.00 | 0.00 | 0.00 | 60 | 1012.4 |
| 20260508044525 | 27 | 146 | 8.0 | 19.3 | 0.00 | 0.00 | 0.00 | 60 | 1012.4 |
| 20260508044019 | 27 | 96 | 6.4 | 19.3 | 0.00 | 0.00 | 0.00 | 60 | 1012.4 |
| 20260508043513 | 27 | 123 | 6.4 | 12.9 | 0.00 | 0.00 | 0.00 | 60 | 1012.4 |
| 20260508043008 | 27 | 123 | 6.4 | 12.9 | 0.00 | 0.00 | 0.00 | 60 | 1012.4 |
| 20260508042502 | 27 | 104 | 6.4 | 14.5 | 0.00 | 0.00 | 0.00 | 61 | 1012.5 |
| 20260508041956 | 27 | 138 | 6.4 | 14.5 | 0.00 | 0.00 | 0.00 | 61 | 1012.5 |
| 20260508041450 | 27 | 117 | 6.4 | 14.5 | 0.00 | 0.00 | 0.00 | 61 | 1012.4 |
| 20260508040944 | 27 | 143 | 6.4 | 14.5 | 0.00 | 0.00 | 0.00 | 61 | 1012.5 |
| 20260508040437 | 27 | 127 | 6.4 | 12.9 | 0.00 | 0.00 | 0.00 | 62 | 1012.5 |
| 20260508035931 | 27 | 82 | 6.4 | 16.1 | 0.00 | 0.00 | 0.00 | 62 | 1012.5 |
| 20260508035426 | 27 | 69 | 4.8 | 16.1 | 0.00 | 0.00 | 0.00 | 62 | 1012.4 |
| 20260508034919 | 26 | 113 | 4.8 | 12.9 | 0.00 | 0.00 | 0.00 | 62 | 1012.4 |
| 20260508034413 | 26 | 109 | 4.8 | 12.9 | 0.00 | 0.00 | 0.00 | 63 | 1012.5 |
| 20260508034138 | 26 | 127 | 6.4 | 12.9 | 0.00 | 0.00 | 0.00 | 63 | 1012.5 |
| 20260508033401 | 26 | 83 | 6.4 | 12.9 | 0.00 | 0.00 | 0.00 | 63 | 1012.5 |
| 20260508032855 | 26 | 104 | 4.8 | 12.9 | 0.00 | 0.00 | 0.00 | 63 | 1012.6 |
| 20260508032349 | 26 | 84 | 4.8 | 12.9 | 0.00 | 0.00 | 0.00 | 64 | 1012.6 |
| 20260508031843 | 26 | 97 | 4.8 | 12.9 | 0.00 | 0.00 | 0.00 | 64 | 1012.6 |
| 20260508031337 | 26 | 117 | 6.4 | 12.9 | 0.00 | 0.00 | 0.00 | 64 | 1012.7 |
| 20260508030831 | 26 | 86 | 6.4 | 12.9 | 0.00 | 0.00 | 0.00 | 64 | 1012.6 |
| 20260508030326 | 26 | 110 | 3.2 | 11.3 | 0.00 | 0.00 | 0.00 | 65 | 1012.6 |
| 20260508025820 | 25 | 105 | 3.2 | 11.3 | 0.00 | 0.00 | 0.00 | 65 | 1012.6 |
| 20260508025313 | 25 | 120 | 6.4 | 14.5 | 0.00 | 0.00 | 0.00 | 65 | 1012.6 |
| 20260508024813 | 25 | 132 | 6.4 | 14.5 | 0.00 | 0.00 | 0.00 | 65 | 1012.6 |
| 20260508024541 | 25 | 70 | 6.4 | 12.9 | 0.00 | 0.00 | 0.00 | 66 | 1012.5 |
| 20260508023811 | 25 | 120 | 6.4 | 12.9 | 0.00 | 0.00 | 0.00 | 66 | 1012.5 |
| 20260508023311 | 25 | 135 | 8.0 | 16.1 | 0.00 | 0.00 | 0.00 | 66 | 1012.5 |
| 20260508023033 | 25 | 112 | 8.0 | 16.1 | 0.00 | 0.00 | 0.00 | 66 | 1012.5 |
| 20260508022534 | 25 | 125 | 6.4 | 16.1 | 0.00 | 0.00 | 0.00 | 66 | 1012.5 |
| 20260508021812 | 25 | 127 | 6.4 | 14.5 | 0.00 | 0.00 | 0.00 | 67 | 1012.4 |
| 20260508021311 | 25 | 108 | 8.0 | 17.7 | 0.00 | 0.00 | 0.00 | 66 | 1012.2 |
| 20260508020811 | 24 | 100 | 8.0 | 17.7 | 0.00 | 0.00 | 0.00 | 66 | 1012.2 |
| 20260508020312 | 25 | 94 | 6.4 | 14.5 | 0.00 | 0.00 | 0.00 | 66 | 1012.2 |
| 20260508015811 | 25 | 109 | 6.4 | 14.5 | 0.00 | 0.00 | 0.00 | 66 | 1012.2 |
| 20260508015314 | 24 | 105 | 8.0 | 16.1 | 0.00 | 0.00 | 0.00 | 66 | 1012.1 |
| 20260508014816 | 25 | 93 | 6.4 | 16.1 | 0.00 | 0.00 | 0.00 | 66 | 1012.2 |
| 20260508014542 | 25 | 99 | 6.4 | 14.5 | 0.00 | 0.00 | 0.00 | 66 | 1012.0 |
| 20260508014031 | 24 | 107 | 4.8 | 12.9 | 0.00 | 0.00 | 0.00 | 66 | 1012.0 |
| 20260508013309 | 24 | 92 | 3.2 | 9.7 | 0.00 | 0.00 | 0.00 | 66 | 1011.9 |
| 20260508012809 | 24 | 84 | 3.2 | 9.7 | 0.00 | 0.00 | 0.00 | 67 | 1011.9 |
| 20260508012308 | 24 | 81 | 3.2 | 12.9 | 0.00 | 0.00 | 0.00 | 67 | 1011.8 |
| 20260508011807 | 24 | 108 | 3.2 | 12.9 | 0.00 | 0.00 | 0.00 | 66 | 1011.8 |
| 20260508011310 | 24 | 86 | 4.8 | 11.3 | 0.00 | 0.00 | 0.00 | 67 | 1011.7 |
| 20260508010807 | 24 | 93 | 3.2 | 11.3 | 0.00 | 0.00 | 0.00 | 67 | 1011.6 |
| 20260508010306 | 24 | 94 | 1.6 | 6.4 | 0.00 | 0.00 | 0.00 | 67 | 1011.6 |
| 20260508005807 | 24 | 97 | 3.2 | 4.8 | 0.00 | 0.00 | 0.00 | 67 | 1011.6 |
| 20260508005538 | 24 | 96 | 1.6 | 6.4 | 0.00 | 0.00 | 0.00 | 66 | 1011.5 |
| 20260508005031 | 24 | 97 | 1.6 | 6.4 | 0.00 | 0.00 | 0.00 | 66 | 1011.5 |
| 20260508004303 | 24 | 98 | 1.6 | 4.8 | 0.00 | 0.00 | 0.00 | 66 | 1011.5 |
| 20260508003803 | 24 | 98 | 1.6 | 4.8 | 0.00 | 0.00 | 0.00 | 66 | 1011.4 |
| 20260508003305 | 24 | 93 | 0.0 | 4.8 | 0.00 | 0.00 | 0.00 | 66 | 1011.4 |
| 20260508003024 | 24 | 93 | 1.6 | 6.4 | 0.00 | 0.00 | 0.00 | 66 | 1011.4 |
| 20260508002306 | 24 | 91 | 3.2 | 6.4 | 0.00 | 0.00 | 0.00 | 66 | 1011.3 |
| 20260508002023 | 24 | 86 | 3.2 | 6.4 | 0.00 | 0.00 | 0.00 | 66 | 1011.2 |
| 20260508001303 | 24 | 86 | 1.6 | 6.4 | 0.00 | 0.00 | 0.00 | 65 | 1011.2 |
| 20260508001036 | 24 | 86 | 0.0 | 6.4 | 0.00 | 0.00 | 0.00 | 65 | 1011.2 |
| 20260508000301 | 24 | 74 | 0.0 | 0.0 | 0.00 | 0.00 | 0.00 | 65 | 1011.1 |
| 20260507235759 | 24 | 74 | 0.0 | 0.0 | 0.00 | 0.00 | 0.00 | 65 | 1011.0 |
| 20260507235259 | 24 | 74 | 0.0 | 3.2 | 0.00 | 0.00 | 0.00 | 65 | 1010.9 |
| 20260507234759 | 24 | 74 | 0.0 | 4.8 | 0.00 | 0.00 | 0.00 | 65 | 1010.9 |
| 20260507234259 | 24 | 74 | 0.0 | 4.8 | 0.00 | 0.00 | 0.00 | 65 | 1010.8 |
| 20260507234018 | 24 | 75 | 0.0 | 0.0 | 0.00 | 0.00 | 0.00 | 65 | 1010.7 |
| 20260507233300 | 24 | 75 | 0.0 | 0.0 | 0.00 | 0.00 | 0.00 | 65 | 1010.7 |
| 20260507233026 | 24 | 75 | 0.0 | 0.0 | 0.00 | 0.00 | 0.00 | 65 | 1010.7 |
| 20260507232301 | 24 | 75 | 0.0 | 0.0 | 0.00 | 0.00 | 0.00 | 65 | 1010.7 |
| 20260507231758 | 25 | 76 | 0.0 | 0.0 | 0.00 | 0.00 | 0.00 | 65 | 1010.8 |
| 20260507231257 | 25 | 76 | 0.0 | 0.0 | 0.00 | 0.00 | 0.00 | 64 | 1010.7 |
| 20260507230758 | 25 | 75 | 0.0 | 0.0 | 0.00 | 0.00 | 0.00 | 64 | 1010.7 |
| 20260507230255 | 25 | 76 | 0.0 | 0.0 | 0.00 | 0.00 | 0.00 | 64 | 1010.7 |